Simultaneous Nadir Overpasses (SNOs) Predictions

Prediction of SNOs between GOES-16 and LANDSAT-8 Satellite Orbit:

Table of predicted SNOs for the next 14.0 days since TLE Epoch: 11/26/2022
Index Date Time (GOES-16) GOES-16 Lat,Lon LANDSAT-8 Lat,Lon Distance(km) Time Diff (sec)
1 11/28/2022 03:10:11 0.05, -75.20 0.16, -74.69 57.58 80
2 11/30/2022 02:58:00 0.05, -75.21 0.80, -71.74 395.25 80
3 11/30/2022 15:21:55 -0.04, -75.23 0.33, -76.89 189.18 80
4 12/02/2022 15:07:04 -0.04, -75.26 -0.32, -73.94 149.75 80
5 12/03/2022 03:31:08 0.04, -75.25 -0.79, -79.13 440.88 80
6 12/04/2022 14:54:53 -0.04, -75.29 -0.98, -70.99 489.41 80
7 12/05/2022 03:18:57 0.04, -75.29 -0.13, -76.18 101.12 80
8 12/07/2022 03:04:05 0.03, -75.32 0.48, -73.22 239.17 80
9 12/07/2022 15:28:01 -0.03, -75.34 0.58, -78.38 344.84 80
10 12/09/2022 15:13:09 -0.03, -75.38 -0.04, -75.42 4.45 80
